• In Czech Republic
  • List of Countries
  • For 7 days
  • Water Temperature
  • Satellite Maps
  • Weather Map
  • Weather Widgets
  • user-avatar
    Login

    Hourly Weather Radzewo

    Today, 21 May, Monday

    Time Temperature Precipitation Wind Pressure Humidity
    00:00 +9°C° 0 mm 3 mps 756 mmHg 70%
    01:00 +9°C° 0 mm 3 mps 756 mmHg 72%
    02:00 +9°C° 0 mm 3 mps 756 mmHg 72%
    03:00 +9°C° 0 mm 3 mps 756 mmHg 72%
    04:00 +8°C° 0 mm 3 mps 756 mmHg 72%
    05:00 +10°C° 0 mm 3 mps 756 mmHg 68%
    06:00 +12°C° 0 mm 3 mps 756 mmHg 64%
    07:00 +16°C° 0 mm 3 mps 756 mmHg 59%
    08:00 +17°C° 0 mm 3 mps 756 mmHg 54%
    09:00 +19°C° 0 mm 3 mps 756 mmHg 49%
    10:00 +20°C° 0 mm 4 mps 756 mmHg 44%
    11:00 +21°C° 0 mm 4 mps 755 mmHg 43%
    12:00 +21°C° 0 mm 4 mps 755 mmHg 41%
    13:00 +22°C° 0 mm 4 mps 755 mmHg 40%
    14:00 +22°C° 0 mm 4 mps 754 mmHg 43%
    15:00 +22°C° 0 mm 4 mps 754 mmHg 45%
    16:00 +21°C° 0 mm 4 mps 753 mmHg 47%
    17:00 +20°C° 0 mm 4 mps 753 mmHg 53%
    18:00 +19°C° 0 mm 3 mps 753 mmHg 59%
    19:00 +17°C° 0 mm 3 mps 752 mmHg 65%
    20:00 +16°C° 0 mm 3 mps 752 mmHg 69%
    21:00 +14°C° 0 mm 3 mps 752 mmHg 74%
    22:00 +13°C° 0 mm 3 mps 752 mmHg 79%
    23:00 +12°C° 0 mm 3 mps 752 mmHg 81%

    Tomorrow, 22 May, Tuesday

    Time Temperature Precipitation Wind Pressure Humidity
    00:00 +12°C° 0 mm 2 mps 752 mmHg 83%
    01:00 +12°C° 0 mm 2 mps 751 mmHg 85%
    02:00 +10°C° 0 mm 2 mps 751 mmHg 84%
    03:00 +10°C° 0 mm 2 mps 751 mmHg 83%
    04:00 +10°C° 0 mm 2 mps 750 mmHg 83%
    05:00 +12°C° 0.1 mm 2 mps 750 mmHg 79%
    06:00 +13°C° 0.1 mm 2 mps 750 mmHg 75%
    07:00 +15°C° 0.1 mm 2 mps 750 mmHg 70%
    08:00 +16°C° 0.1 mm 2 mps 750 mmHg 66%
    09:00 +17°C° 0.1 mm 2 mps 750 mmHg 62%
    10:00 +18°C° 0.1 mm 2 mps 750 mmHg 58%
    11:00 +19°C° 0.6 mm 2 mps 750 mmHg 58%
    12:00 +19°C° 0.6 mm 2 mps 750 mmHg 57%
    13:00 +20°C° 0.6 mm 2 mps 749 mmHg 57%
    14:00 +20°C° 0.3 mm 2 mps 749 mmHg 56%
    15:00 +20°C° 0.3 mm 2 mps 749 mmHg 56%
    16:00 +20°C° 0.3 mm 2 mps 749 mmHg 55%
    17:00 +19°C° 0 mm 2 mps 749 mmHg 60%
    18:00 +18°C° 0 mm 2 mps 749 mmHg 65%
    19:00 +17°C° 0 mm 2 mps 749 mmHg 70%
    20:00 +15°C° 0 mm 2 mps 749 mmHg 77%
    21:00 +14°C° 0 mm 2 mps 750 mmHg 83%
    22:00 +12°C° 0 mm 2 mps 750 mmHg 90%
    23:00 +12°C° 0 mm 2 mps 750 mmHg 91%

    Day after tomorrow, 23 May, Wednesday

    Time Temperature Precipitation Wind Pressure Humidity
    00:00 +10°C° 0 mm 2 mps 750 mmHg 92%
    01:00 +10°C° 0 mm 2 mps 750 mmHg 94%
    02:00 +9°C° 0 mm 2 mps 751 mmHg 94%
    03:00 +9°C° 0 mm 2 mps 751 mmHg 94%
    04:00 +9°C° 0 mm 2 mps 751 mmHg 95%
    05:00 +12°C° 0 mm 2 mps 752 mmHg 87%
    06:00 +13°C° 0 mm 2 mps 752 mmHg 80%
    07:00 +15°C° 0 mm 2 mps 753 mmHg 72%
    08:00 +17°C° 0 mm 2 mps 753 mmHg 64%
    09:00 +18°C° 0 mm 2 mps 753 mmHg 56%
    10:00 +20°C° 0 mm 2 mps 754 mmHg 48%
    11:00 +21°C° 0 mm 3 mps 754 mmHg 46%
    12:00 +22°C° 0 mm 3 mps 754 mmHg 44%
    13:00 +22°C° 0 mm 3 mps 754 mmHg 41%
    14:00 +22°C° 0 mm 3 mps 754 mmHg 43%
    15:00 +22°C° 0 mm 4 mps 754 mmHg 45%
    16:00 +22°C° 0 mm 4 mps 754 mmHg 47%
    17:00 +21°C° 0 mm 4 mps 754 mmHg 53%
    18:00 +19°C° 0 mm 4 mps 754 mmHg 58%
    19:00 +18°C° 0 mm 4 mps 754 mmHg 64%
    20:00 +16°C° 0 mm 3 mps 755 mmHg 69%
    21:00 +13°C° 0 mm 3 mps 755 mmHg 74%
    22:00 +12°C° 0 mm 3 mps 755 mmHg 79%
    23:00 +11°C° 0 mm 3 mps 755 mmHg 80%

    24 May, Thursday

    Time Temperature Precipitation Wind Pressure Humidity
    00:00 +10°C° 0 mm 3 mps 755 mmHg 82%
    01:00 +10°C° 0 mm 2 mps 756 mmHg 84%
    02:00 +10°C° 0 mm 2 mps 756 mmHg 85%
    03:00 +9°C° 0 mm 2 mps 756 mmHg 86%
    04:00 +9°C° 0 mm 2 mps 756 mmHg 87%
    05:00 +11°C° 0 mm 3 mps 756 mmHg 82%
    06:00 +13°C° 0 mm 3 mps 756 mmHg 76%
    07:00 +15°C° 0 mm 4 mps 756 mmHg 71%
    08:00 +18°C° 0 mm 4 mps 757 mmHg 63%
    09:00 +20°C° 0 mm 4 mps 757 mmHg 56%
    10:00 +22°C° 0 mm 5 mps 757 mmHg 49%
    11:00 +22°C° 0 mm 5 mps 757 mmHg 46%
    12:00 +23°C° 0 mm 5 mps 757 mmHg 43%
    13:00 +25°C° 0 mm 5 mps 756 mmHg 41%
    14:00 +23°C° 0 mm 5 mps 756 mmHg 42%
    15:00 +23°C° 0 mm 5 mps 756 mmHg 44%
    16:00 +23°C° 0 mm 5 mps 756 mmHg 45%
    17:00 +21°C° 0 mm 5 mps 756 mmHg 51%
    18:00 +20°C° 0 mm 4 mps 755 mmHg 57%
    19:00 +18°C° 0 mm 4 mps 755 mmHg 63%
    20:00 +17°C° 0 mm 4 mps 756 mmHg 67%
    21:00 +14°C° 0 mm 4 mps 756 mmHg 71%
    22:00 +13°C° 0 mm 3 mps 756 mmHg 75%
    23:00 +13°C° 0 mm 3 mps 756 mmHg 77%

    25 May, Friday

    Time Temperature Precipitation Wind Pressure Humidity
    00:00 +12°C° 0 mm 3 mps 756 mmHg 79%
    01:00 +12°C° 0 mm 3 mps 756 mmHg 80%
    02:00 +12°C° 0 mm 3 mps 756 mmHg 83%
    03:00 +12°C° 0 mm 3 mps 756 mmHg 85%
    04:00 +12°C° 0 mm 3 mps 756 mmHg 87%
    05:00 +14°C° 0 mm 3 mps 756 mmHg 82%
    06:00 +17°C° 0 mm 3 mps 756 mmHg 76%
    07:00 +19°C° 0 mm 3 mps 756 mmHg 70%
    08:00 +20°C° 0 mm 4 mps 756 mmHg 64%
    09:00 +22°C° 0 mm 5 mps 756 mmHg 57%
    10:00 +25°C° 0 mm 5 mps 756 mmHg 50%
    11:00 +25°C° 0 mm 5 mps 756 mmHg 48%
    12:00 +26°C° 0 mm 5 mps 756 mmHg 47%
    13:00 +26°C° 0 mm 5 mps 756 mmHg 45%
    14:00 +26°C° 0 mm 5 mps 755 mmHg 48%
    15:00 +25°C° 0 mm 5 mps 755 mmHg 50%
    16:00 +25°C° 0 mm 5 mps 755 mmHg 52%
    17:00 +23°C° 0 mm 5 mps 755 mmHg 57%
    18:00 +22°C° 0 mm 4 mps 755 mmHg 63%
    19:00 +21°C° 0 mm 4 mps 755 mmHg 68%
    20:00 +20°C° 0 mm 4 mps 755 mmHg 72%
    21:00 +18°C° 0 mm 4 mps 755 mmHg 76%
    22:00 +17°C° 0 mm 4 mps 755 mmHg 80%
    23:00 +17°C° 0 mm 4 mps 755 mmHg 82%

    26 May, Saturday

    Time Temperature Precipitation Wind Pressure Humidity
    00:00 +17°C° 0 mm 4 mps 755 mmHg 84%
    01:00 +16°C° 0 mm 3 mps 755 mmHg 86%
    02:00 +15°C° 0 mm 4 mps 755 mmHg 87%
    03:00 +15°C° 0 mm 4 mps 755 mmHg 87%
    04:00 +14°C° 0 mm 4 mps 755 mmHg 87%
    05:00 +17°C° 0 mm 4 mps 755 mmHg 81%
    06:00 +18°C° 0 mm 4 mps 756 mmHg 75%
    07:00 +19°C° 0 mm 4 mps 756 mmHg 69%
    08:00 +20°C° 0 mm 5 mps 756 mmHg 64%
    09:00 +22°C° 0 mm 5 mps 756 mmHg 59%
    10:00 +23°C° 0 mm 5 mps 756 mmHg 55%
    11:00 +25°C° 0 mm 5 mps 756 mmHg 52%
    12:00 +26°C° 0 mm 5 mps 755 mmHg 50%
    13:00 +26°C° 0 mm 5 mps 755 mmHg 48%
    14:00 +26°C° 0 mm 5 mps 755 mmHg 49%
    15:00 +26°C° 0 mm 5 mps 755 mmHg 50%
    16:00 +26°C° 0 mm 5 mps 754 mmHg 51%
    17:00 +25°C° 0 mm 5 mps 754 mmHg 56%
    18:00 +23°C° 0 mm 4 mps 754 mmHg 60%
    19:00 +21°C° 0 mm 4 mps 754 mmHg 65%
    20:00 +20°C° 0 mm 4 mps 754 mmHg 65%
    21:00 +19°C° 0 mm 4 mps 754 mmHg 65%
    22:00 +18°C° 0 mm 4 mps 754 mmHg 65%
    23:00 +18°C° 0 mm 4 mps 754 mmHg 68%
    Show more